Weather in Priiskovy

Russia / Zabaykalsky Krai     51°55′09″N   116°37′21″E
temp.,
°C
wind,
m/s
gust,
m/s
humid.,
%
clouds,
%
prec.,
mm/h
press.,
hPa
HPBL,
m
26 february, fri
fri2600:00−22ene129897 0.0 103020
03:00−23n0010098 0.0 102920
06:00−21ne3398100 0.0 102879
09:00−19ne2397100 0.1 1026130
12:00−15nne2392100 0.0 1024267
15:00−12nne4594100 0.1 1020297
18:00−10ene4693100 0.3 1018196
21:00−11e4595100 1.3 1016182
27 february, sat
sat2700:00−12ene4695100 1.1 1013235
03:00−13nne4696100 2.8 1010271
06:00−15nnw4896100 1.9 1011374
09:00−18w119897 2.3 101320
12:00−12w597998 0.1 1015889
15:00−10wnw7107598 0.2 10161534
18:00−12wnw71277100 0.1 1020815
21:00−18wnw7166866 0.1 1026439
28 february, sun
sun2800:00−22w510750 0.0 1029176
03:00−25w48770 0.0 1033118
06:00−28wsw33800 0.0 103519
09:00−29sw23830 0.0 103824
12:00−22w35750 0.0 1037352
15:00−18wnw58650 0.0 10361281
18:00−19w347867 0.0 103762
21:00−24sw227682 0.0 104020
1 march, mon
mon100:00−27sw22760 0.0 104219
03:00−28sw228114 0.0 104219
06:00−27sw228498 0.0 104219
09:00−28sw228599 0.0 104219
12:00−22wsw2481100 0.0 1038329
15:00−19w358392 0.0 1035417
18:00−19nw019446 0.1 103320
21:00−21sse229973 0.3 103428
2 march, tue
tue200:00−24s229895 0.1 103320
03:00−24s129896 0.1 103120
06:00−24ssw11100100 0.2 103020
09:00−24wsw1199100 0.3 102920
12:00−21nne1191100 0.1 1026295
15:00−19nne2189100 0.1 1023293
18:00−21ne119599 0.0 102221
21:00−25se1110094 0.0 102320